TimeEDT,TemperatureF,Dew PointF,Humidity,Sea Level PressureIn,VisibilityMPH,Wind Direction,Wind SpeedMPH,Gust SpeedMPH,PrecipitationIn,Events,Conditions,WindDirDegrees,DateUTC
12:15 AM,38.1,27.0,64,30.23,10.0,Calm,Calm,-,N/A,,Clear,0,2013-03-30 04:15:00
12:35 AM,39.9,26.8,59,30.22,10.0,Calm,Calm,-,N/A,,Clear,0,2013-03-30 04:35:00
12:55 AM,38.5,26.8,63,30.22,10.0,Calm,Calm,-,N/A,,Mostly Cloudy,0,2013-03-30 04:55:00
1:15 AM,38.3,26.8,63,30.22,10.0,SSW,3.5,-,N/A,,Scattered Clouds,210,2013-03-30 05:15:00
1:35 AM,36.1,27.3,70,30.22,10.0,Calm,Calm,-,N/A,,Clear,0,2013-03-30 05:35:00
1:55 AM,34.9,27.0,73,30.22,10.0,Calm,Calm,-,N/A,,Clear,0,2013-03-30 05:55:00
2:15 AM,34.0,27.9,78,30.22,10.0,Calm,Calm,-,N/A,,Clear,0,2013-03-30 06:15:00
2:35 AM,33.8,27.9,79,30.22,10.0,Calm,Calm,-,N/A,,Clear,0,2013-03-30 06:35:00
2:55 AM,34.2,27.7,77,30.22,10.0,Calm,Calm,-,N/A,,Clear,0,2013-03-30 06:55:00
3:15 AM,32.9,27.5,81,30.22,10.0,Calm,Calm,-,N/A,,Clear,0,2013-03-30 07:15:00
3:35 AM,32.5,27.1,80,30.21,10.0,Calm,Calm,-,N/A,,Clear,0,2013-03-30 07:35:00
3:55 AM,32.5,27.3,81,30.21,10.0,Calm,Calm,-,N/A,,Clear,0,2013-03-30 07:55:00
4:15 AM,32.4,27.1,81,30.21,7.0,Calm,Calm,-,N/A,,Clear,0,2013-03-30 08:15:00
4:35 AM,31.3,26.4,82,30.21,7.0,Calm,Calm,-,N/A,,Clear,0,2013-03-30 08:35:00
4:55 AM,31.1,26.8,84,30.21,7.0,Calm,Calm,-,N/A,,Clear,0,2013-03-30 08:55:00
5:15 AM,30.9,26.2,83,30.21,7.0,Calm,Calm,-,N/A,,Clear,0,2013-03-30 09:15:00
5:35 AM,29.5,25.5,85,30.21,7.0,East,3.5,-,N/A,,Clear,100,2013-03-30 09:35:00
5:55 AM,28.8,25.0,86,30.21,5.0,Calm,Calm,-,N/A,,Clear,0,2013-03-30 09:55:00
6:15 AM,29.7,25.5,85,30.21,7.0,Calm,Calm,-,N/A,,Clear,0,2013-03-30 10:15:00
6:35 AM,30.2,25.7,83,30.21,7.0,Calm,Calm,-,N/A,,Clear,0,2013-03-30 10:35:00
6:55 AM,30.4,26.2,85,30.22,5.0,Calm,Calm,-,N/A,,Haze,0,2013-03-30 10:55:00
7:15 AM,29.8,25.0,82,30.23,10.0,Calm,Calm,-,N/A,,Clear,0,2013-03-30 11:15:00
7:35 AM,28.9,24.8,84,30.23,4.0,Calm,Calm,-,N/A,,Clear,0,2013-03-30 11:35:00
7:55 AM,29.7,25.5,85,30.24,7.0,Calm,Calm,-,N/A,,Clear,0,2013-03-30 11:55:00
8:15 AM,30.4,25.9,83,30.24,5.0,Calm,Calm,-,N/A,,Haze,0,2013-03-30 12:15:00
8:35 AM,31.5,27.1,84,30.25,5.0,Calm,Calm,-,N/A,,Clear,0,2013-03-30 12:35:00
8:55 AM,33.6,29.1,84,30.25,5.0,Calm,Calm,-,N/A,,Haze,0,2013-03-30 12:55:00
9:15 AM,36.5,30.6,79,30.24,7.0,South,3.5,-,N/A,,Clear,180,2013-03-30 13:15:00
9:35 AM,39.2,31.3,73,30.23,10.0,Calm,Calm,-,N/A,,Clear,0,2013-03-30 13:35:00
9:55 AM,41.7,32.0,68,30.23,10.0,Calm,Calm,-,N/A,,Clear,0,2013-03-30 13:55:00
10:15 AM,44.2,32.0,62,30.22,10.0,Calm,Calm,-,N/A,,Clear,0,2013-03-30 14:15:00
10:35 AM,46.8,32.2,57,30.21,10.0,South,3.5,-,N/A,,Clear,180,2013-03-30 14:35:00
10:55 AM,48.7,31.5,51,30.21,10.0,South,5.8,-,N/A,,Clear,190,2013-03-30 14:55:00
11:15 AM,50.4,30.2,46,30.21,10.0,South,5.8,-,N/A,,Clear,180,2013-03-30 15:15:00
11:35 AM,51.8,26.2,37,30.21,10.0,South,6.9,-,N/A,,Clear,180,2013-03-30 15:35:00
11:55 AM,52.9,23.5,32,30.21,10.0,South,6.9,-,N/A,,Clear,190,2013-03-30 15:55:00
12:15 PM,53.8,21.9,29,30.21,10.0,WSW,6.9,-,N/A,,Clear,240,2013-03-30 16:15:00
12:35 PM,54.3,20.7,27,30.19,10.0,South,9.2,-,N/A,,Clear,170,2013-03-30 16:35:00
12:55 PM,54.3,19.4,26,30.18,10.0,Calm,Calm,-,N/A,,Clear,0,2013-03-30 16:55:00
1:15 PM,54.1,18.9,25,30.17,10.0,SSE,4.6,-,N/A,,Clear,150,2013-03-30 17:15:00
1:35 PM,55.6,18.5,23,30.16,10.0,Calm,Calm,-,N/A,,Clear,0,2013-03-30 17:35:00
1:55 PM,56.1,18.1,23,30.15,10.0,South,8.1,-,N/A,,Clear,190,2013-03-30 17:55:00
2:15 PM,56.3,16.9,21,30.14,10.0,Calm,Calm,-,N/A,,Clear,0,2013-03-30 18:15:00
2:35 PM,56.5,17.4,22,30.13,10.0,Calm,Calm,-,N/A,,Clear,0,2013-03-30 18:35:00
2:55 PM,56.8,17.4,21,30.12,10.0,SE,4.6,-,N/A,,Clear,130,2013-03-30 18:55:00
3:15 PM,57.6,17.4,21,30.11,10.0,Calm,Calm,-,N/A,,Clear,0,2013-03-30 19:15:00
3:35 PM,57.7,16.0,20,30.10,10.0,WSW,5.8,-,N/A,,Clear,240,2013-03-30 19:35:00
3:55 PM,58.3,16.7,20,30.10,10.0,SSE,3.5,-,N/A,,Clear,160,2013-03-30 19:55:00
4:15 PM,58.8,16.2,19,30.09,10.0,SSW,3.5,-,N/A,,Clear,210,2013-03-30 20:15:00
4:35 PM,57.9,15.6,19,30.08,10.0,Calm,Calm,-,N/A,,Clear,0,2013-03-30 20:35:00
4:55 PM,58.1,16.2,19,30.07,10.0,SSE,3.5,-,N/A,,Clear,160,2013-03-30 20:55:00
5:15 PM,58.3,15.1,18,30.06,10.0,ESE,3.5,-,N/A,,Clear,110,2013-03-30 21:15:00
5:35 PM,58.1,15.1,19,30.06,10.0,SSE,5.8,-,N/A,,Clear,160,2013-03-30 21:35:00
5:55 PM,58.1,15.3,19,30.05,10.0,SSE,4.6,-,N/A,,Clear,160,2013-03-30 21:55:00
6:15 PM,58.3,14.7,18,30.05,10.0,Calm,Calm,-,N/A,,Clear,0,2013-03-30 22:15:00
6:35 PM,58.1,15.3,19,30.04,10.0,Calm,Calm,-,N/A,,Clear,0,2013-03-30 22:35:00
6:55 PM,57.6,15.6,19,30.04,10.0,Calm,Calm,-,N/A,,Clear,0,2013-03-30 22:55:00
7:15 PM,57.0,15.1,19,30.03,10.0,Calm,Calm,-,N/A,,Clear,0,2013-03-30 23:15:00
7:35 PM,56.5,16.7,21,30.03,10.0,Calm,Calm,-,N/A,,Clear,0,2013-03-30 23:35:00
7:55 PM,55.9,16.0,21,30.03,10.0,Calm,Calm,-,N/A,,Clear,0,2013-03-30 23:55:00
8:15 PM,55.4,15.8,21,30.02,10.0,Calm,Calm,-,N/A,,Clear,0,2013-03-31 00:15:00
8:35 PM,55.0,15.8,21,30.02,10.0,Calm,Calm,-,N/A,,Clear,0,2013-03-31 00:35:00
8:55 PM,52.2,21.6,30,30.01,10.0,Calm,Calm,-,N/A,,Clear,0,2013-03-31 00:55:00
9:15 PM,50.0,22.6,34,30.01,10.0,Calm,Calm,-,N/A,,Clear,0,2013-03-31 01:15:00
9:35 PM,46.9,27.7,47,30.01,10.0,East,5.8,-,N/A,,Clear,80,2013-03-31 01:35:00
9:55 PM,46.6,27.1,47,29.99,10.0,East,5.8,-,N/A,,Clear,80,2013-03-31 01:55:00
10:15 PM,46.8,26.8,46,29.99,10.0,East,3.5,-,N/A,,Clear,80,2013-03-31 02:15:00
10:35 PM,46.8,26.4,45,29.98,10.0,ENE,4.6,-,N/A,,Clear,70,2013-03-31 02:35:00
10:55 PM,47.3,25.3,42,29.98,10.0,ENE,3.5,-,N/A,,Clear,70,2013-03-31 02:55:00
11:35 PM,47.3,25.2,42,29.97,10.0,NE,3.5,-,N/A,,Clear,50,2013-03-31 03:35:00
11:55 PM,47.8,24.8,41,29.96,10.0,Calm,Calm,-,N/A,,Clear,0,2013-03-31 03:55:00